Probability
39 42 44 39 28 19 14 8 4 3 4 2 1 1 2 3 5 9 16 23 24 23 21 18 14 10 6 6 6 4 2 3 4 2 1 0 0 0 0 0 0 0 0
43 46 47 40 30 24 20 15 10 9 8 5 3 3 4 5 8 13 19 24 25 23 22 23 21 18 13 10 10 7 4 5 6 4 2 1 0 0 0 0 0 0 0
43 46 47 39 30 28 29 26 22 19 15 11 8 6 7 10 14 20 25 27 24 21 22 26 28 26 20 16 14 12 9 9 8 6 3 2 0 0 0 1 1 0 0
36 38 38 34 30 30 31 31 29 26 21 16 13 11 13 18 21 24 26 26 23 20 20 24 27 28 23 18 16 15 12 9 8 6 4 3 1 0 0 1 1 0 0
28 29 30 30 29 29 29 28 29 30 27 22 17 16 19 24 25 23 22 23 21 20 21 22 24 26 23 18 17 16 13 10 9 7 4 2 1 0 0 0 1 1 1
23 23 25 28 28 27 25 24 24 28 29 27 20 17 19 23 25 24 21 21 21 22 22 23 25 24 21 19 18 16 13 12 12 9 4 1 0 0 0 1 2 3 3
18 18 19 23 24 21 19 18 18 21 25 27 24 19 17 19 23 24 23 22 22 22 21 23 26 24 20 18 18 16 14 12 12 11 6 3 2 2 2 3 5 5 5
15 13 13 16 17 15 13 13 14 15 19 25 26 22 16 15 18 20 21 20 21 22 20 22 26 25 22 19 15 14 12 11 12 12 9 7 6 5 5 5 6 6 5
11 11 11 12 12 11 11 12 12 11 14 21 25 22 17 14 15 16 17 18 19 19 18 17 19 23 24 21 15 11 9 9 10 11 10 8 7 6 6 5 5 5 4
7 8 9 10 10 9 10 11 11 10 12 15 19 19 17 15 14 12 11 13 14 14 13 11 12 17 23 22 15 9 8 7 7 7 6 6 7 6 5 4 4 3 2
4 5 5 7 8 9 10 11 12 12 12 12 12 13 13 14 15 11 6 7 9 10 11 11 10 15 21 20 13 8 6 4 3 2 2 3 5 5 4 3 2 1 1
3 3 3 5 7 8 9 10 11 12 11 10 9 9 10 12 13 9 4 4 6 8 9 10 11 14 17 16 12 7 4 2 0 0 0 1 2 3 4 3 2 0 0
1 2 2 4 5 6 7 8 9 10 9 7 7 6 7 9 9 8 5 4 5 6 6 8 10 12 13 14 11 6 2 0 0 0 0 0 1 2 2 2 1 0 0
0 0 1 2 2 3 4 5 6 6 5 4 4 3 3 4 5 6 6 4 4 4 5 6 7 9 10 10 8 3 0 0 0 0 0 0 0 1 1 0 0 0 0
0 0 0 0 0 1 1 1 2 2 2 1 1 1 1 1 2 4 4 3 2 3 5 5 6 7 7 6 4 1 0 0 0 0 0 0 0 0 0 0 0 0 0
0 0 0 0 0 0 0 0 0 0 0 0 0 0 0 0 1 1 1 1 1 3 4 4 5 6 6 4 1 0 0 0 0 0 0 0 0 0 0 0 0 0 0
0 0 0 0 0 0 0 0 0 0 0 0 0 0 0 0 0 0 0 0 1 3 4 5 6 6 5 2 0 0 0 0 0 0 0 0 0 0 0 0 0 0 0
0 0 0 0 0 0 0 0 0 0 0 0 0 0 0 0 0 0 0 0 1 3 4 6 6 5 4 2 1 0 0 0 0 0 0 0 0 0 0 0 0 0 0
0 0 0 0 0 0 0 0 0 0 0 0 0 0 0 0 0 0 0 0 1 2 4 6 6 4 3 2 1 0 0 0 0 0 0 0 0 0 0 0 0 0 0
0 0 0 0 0 0 0 0 0 0 0 0 0 0 0 0 0 0 0 0 0 1 3 6 5 3 1 1 0 0 0 0 0 0 0 0 0 0 0 0 0 0 0
0 0 0 0 0 0 0 0 0 0 0 0 0 0 0 0 0 0 0 0 0 0 2 5 5 2 0 0 0 0 0 0 0 0 0 0 0 0 0 0 0 0 0
0 0 0 0 0 0 0 0 0 0 0 0 0 0 0 0 0 0 0 0 0 0 1 4 3 1 0 0 0 0 0 0 0 0 0 0 0 0 0 0 0 0 0
0 0 0 0 0 0 0 0 0 0 0 0 0 0 0 0 0 0 0 0 0 0 1 2 1 0 0 0 0 0 0 0 0 0 0 0 0 0 0 0 0 0 0
0 0 0 0 0 0 0 0 0 0 0 0 0 0 0 0 0 0 0 0 0 0 0 0 0 0 0 0 0 0 0 0 0 0 0 0 0 0 0 0 0 0 0
0 0 0 0 0 0 0 0 0 0 0 0 0 0 0 0 0 0 0 0 0 0 0 0 0 0 0 0 0 0 0 0 0 0 0 0 0 0 0 0 0 0 0
0 0 0 0 0 0 0 0 0 0 0 0 0 0 0 0 0 0 0 0 0 0 0 0 0 0 0 0 0 0 0 0 0 0 0 0 0 0 0 0 0 0 0
Wind_Speed
1 1 0 0 2 2 3 3 3 2 2 3 4 3 2 2 1 0 4 11 12 11 12 12 11 12 12 11 11 10 9 9 8 7 6 6 6 5 5 4 4 3 3
1 1 1 1 2 1 1 2 2 1 1 2 3 3 3 2 1 0 2 6 10 10 10 11 11 11 11 11 11 10 10 9 9 8 8 7 7 6 5 5 4 4 4
1 1 1 2 2 2 1 1 2 2 2 3 3 3 2 2 2 1 0 2 3 7 8 8 9 9 10 11 11 11 11 10 10 9 9 8 7 7 6 6 5 5 5
1 1 2 2 3 2 1 1 2 1 1 2 2 2 2 2 2 2 1 1 2 2 5 6 7 8 9 10 11 11 12 12 11 10 9 9 8 7 7 6 6 6 6
2 2 2 2 3 2 1 2 1 1 2 2 2 2 2 2 2 3 2 2 2 2 2 4 6 7 8 9 10 10 11 12 11 11 10 9 9 8 8 8 7 7 7
2 2 2 2 2 1 1 2 2 2 2 2 4 3 2 2 2 2 3 2 2 1 1 1 2 4 6 7 8 9 10 11 11 10 10 9 8 8 9 8 8 8 7
3 2 2 1 1 1 1 2 2 2 2 2 2 2 3 3 3 2 2 1 1 1 1 1 1 1 2 5 7 8 9 10 11 10 10 9 9 8 9 9 9 9 8
3 2 2 2 2 1 1 2 2 2 3 2 2 2 2 2 2 2 2 2 1 0 1 1 1 1 1 1 3 6 7 8 9 10 10 10 10 9 9 10 9 9 9
3 3 4 3 3 2 2 2 2 2 3 3 2 2 1 2 0 1 1 1 2 1 1 1 1 1 1 1 2 3 4 6 7 9 9 10 10 10 10 10 10 10 10
2 3 3 3 3 2 3 3 3 3 3 3 2 2 2 1 1 1 0 1 2 1 1 1 1 1 1 1 2 3 4 5 5 6 7 8 9 10 10 10 10 11 10
3 4 4 4 3 3 3 3 3 3 3 2 2 2 2 2 2 2 2 1 1 1 1 0 0 1 1 1 2 3 5 5 6 6 6 7 8 10 10 10 10 10 10
2 4 4 4 3 3 3 3 3 3 3 3 3 2 2 2 1 2 2 2 1 0 1 1 1 0 0 1 2 4 6 6 6 6 7 7 8 9 9 10 10 10 10
3 4 4 4 3 3 3 3 3 2 3 3 3 3 3 2 2 1 1 1 1 0 0 1 1 1 1 1 2 6 6 7 7 7 7 8 9 9 10 10 10 10 10
3 3 3 3 4 4 4 3 3 2 2 3 3 3 3 2 2 2 1 1 1 1 1 0 1 2 2 2 4 6 5 8 8 8 8 9 9 9 9 9 10 10 9
3 4 4 4 4 4 4 4 2 3 3 3 3 3 3 2 2 2 2 2 3 2 1 1 1 1 2 2 5 4 4 8 9 10 10 10 10 10 9 9 9 9 8
4 3 3 3 3 4 4 4 3 3 3 3 2 3 3 2 2 2 2 2 2 2 2 1 1 1 2 3 5 4 5 10 10 10 10 10 10 10 10 10 9 9 8
3 4 4 4 4 4 4 4 4 4 4 3 3 3 3 2 2 1 1 1 1 1 2 2 1 2 3 4 4 4 5 5 5 10 10 10 9 9 9 9 9 9 8
3 4 4 4 5 5 4 4 4 4 4 4 4 3 3 2 2 1 1 1 1 2 4 4 3 2 3 4 5 5 5 5 5 9 10 10 9 8 7 7 7 6 5
3 4 4 4 4 4 5 5 5 4 4 5 5 4 4 3 2 1 1 1 1 3 4 5 4 2 2 3 4 5 6 5 5 7 8 8 8 7 6 5 5 5 5
4 4 4 4 4 6 7 7 6 5 4 4 5 5 5 4 3 1 2 2 3 4 5 6 5 3 3 2 3 4 4 3 3 4 5 5 6 6 6 5 5 5 6
4 4 4 5 5 6 8 8 7 6 5 4 5 5 5 5 5 3 2 3 3 4 4 5 5 4 4 3 3 3 5 4 2 2 3 3 3 3 4 5 7 8 8
4 4 5 6 7 7 9 11 8 6 5 4 4 3 4 5 7 7 6 4 3 4 4 4 4 5 5 4 4 4 4 4 2 2 3 3 4 4 4 4 8 11 11
4 4 4 5 5 7 10 11 11 5 4 5 4 4 4 5 5 4 5 6 4 4 4 4 5 5 5 4 5 5 4 3 3 4 3 2 2 3 3 5 11 13 12
3 3 3 4 4 7 10 11 11 4 4 5 5 5 5 5 6 4 3 4 4 4 4 3 3 3 4 3 3 4 4 3 2 2 2 2 2 3 3 3 10 13 14
2 3 3 3 4 5 9 11 10 3 3 5 6 6 6 5 7 6 4 5 5 4 5 6 5 5 4 4 3 3 3 3 2 1 2 1 2 2 2 3 6 13 14
2 2 3 4 4 5 8 11 10 3 3 3 4 5 9 8 8 7 4 4 4 3 4 5 5 4 4 3 3 2 2 2 2 1 1 1 1 1 1 2 3 4 7
Wind_Direction
278 283 256 194 216 200 194 208 236 242 263 282 274 272 286 288 310 320 144 170 175 183 190 198 204 208 210 209 209 208 205 206 204 199 201 202 203 201 200 200 198 194 190
285 287 267 267 268 246 199 203 240 249 249 278 285 288 288 291 304 288 145 176 186 189 194 201 207 211 212 210 208 206 204 205 201 199 200 197 195 193 193 194 191 190 186
256 275 273 260 265 258 240 220 237 235 232 251 260 277 288 290 297 332 192 159 184 200 203 200 205 209 211 211 208 207 206 202 203 203 201 197 193 191 193 192 189 181 171
339 312 271 260 272 265 241 234 247 258 262 265 263 261 268 277 268 253 252 207 186 188 199 204 209 206 207 209 208 208 207 204 203 204 203 199 195 193 188 181 174 170 164
332 284 269 278 284 277 262 258 229 230 240 249 255 246 252 256 257 249 224 225 210 171 161 190 209 211 208 210 210 207 207 205 203 201 203 203 199 188 177 170 166 165 162
323 284 253 251 264 276 286 287 282 249 237 240 261 261 240 238 239 235 231 220 188 183 160 163 188 214 206 205 207 208 208 203 198 194 197 199 192 181 176 174 170 166 163
333 318 315 290 289 268 271 281 270 259 239 230 243 264 254 233 228 228 226 203 166 183 148 141 137 200 204 206 206 208 209 205 197 191 191 193 185 179 175 175 175 172 165
350 343 336 336 334 316 295 270 274 265 252 224 217 233 241 243 237 221 191 172 177 141 95 154 147 173 198 193 205 213 213 204 201 199 195 190 183 178 178 179 174 170 167
12 6 1 2 352 345 320 304 291 277 275 259 223 223 229 228 220 217 183 146 126 117 111 139 125 134 157 160 180 185 186 190 194 198 196 187 180 179 177 177 176 172 167
24 28 10 4 349 343 334 323 330 303 285 281 273 248 253 245 204 224 176 112 108 95 54 349 41 85 86 104 113 133 150 166 170 177 182 181 179 177 174 172 174 173 170
48 37 18 9 358 357 353 344 335 324 308 304 297 292 268 260 228 216 228 188 102 71 63 40 54 74 92 125 143 127 134 143 152 157 161 169 179 177 173 167 164 161 154
57 41 23 10 2 0 352 346 332 329 323 319 307 296 285 265 257 235 223 205 171 93 43 22 27 36 133 143 143 127 132 133 142 151 155 155 160 154 151 153 150 144 141
44 31 20 4 359 351 339 342 329 330 328 317 302 296 293 285 293 273 226 224 220 208 97 29 12 12 42 79 103 120 123 124 129 137 138 141 145 145 144 145 144 142 140
38 24 8 2 -0 354 351 345 334 336 336 318 307 299 286 283 285 278 245 211 218 217 166 147 23 28 37 63 78 101 111 114 120 124 124 124 128 134 138 139 137 135 135
27 19 3 6 11 2 353 344 353 354 347 334 321 318 308 292 287 273 258 219 199 204 206 151 91 19 50 75 94 102 104 111 115 112 113 115 117 120 123 126 126 127 129
17 5 6 5 11 6 4 357 355 353 346 331 316 319 312 311 297 276 260 252 231 193 179 126 105 93 88 89 101 105 104 106 107 109 111 112 113 115 116 118 122 126 130
7 11 6 10 11 11 8 2 357 353 356 348 332 317 310 305 300 298 286 254 199 155 159 117 85 104 100 99 99 97 100 97 103 107 110 109 107 109 111 115 117 119 119
16 20 17 17 12 15 7 6 4 6 3 360 353 347 336 332 342 329 350 31 101 137 146 136 119 111 101 109 110 105 103 102 101 107 111 113 113 116 120 120 121 123 123
25 23 22 20 14 12 13 8 4 7 15 12 9 7 359 353 6 17 49 78 94 110 123 131 129 122 111 121 112 103 102 101 111 115 117 122 127 131 136 140 144 147 150
32 31 26 18 23 27 19 9 2 6 25 29 26 21 13 10 13 38 80 99 110 112 124 129 130 132 121 126 125 123 112 108 117 133 134 140 144 151 161 168 171 172 177
36 29 27 29 31 41 20 5 356 10 22 35 40 38 36 41 42 45 83 103 121 129 134 136 138 136 140 151 147 143 131 132 125 142 142 158 160 171 184 195 197 198 200
33 32 31 41 39 31 8 7 3 1 12 27 35 45 54 56 60 65 84 96 112 135 143 145 145 147 149 148 142 146 142 142 147 182 166 180 177 186 196 197 199 204 210
38 36 38 46 50 27 11 7 3 359 23 27 21 23 50 54 55 70 86 94 95 95 122 144 146 150 148 157 153 153 156 156 151 169 165 183 191 197 201 201 196 204 212
32 42 50 52 51 32 13 6 357 13 35 38 36 39 52 46 39 41 94 94 88 73 87 114 126 137 140 147 152 152 155 138 125 160 164 178 199 205 205 195 201 205 212
39 51 58 54 51 37 16 9 2 14 46 46 44 39 47 50 33 43 77 92 92 85 77 100 119 123 123 130 125 120 135 141 151 183 186 173 195 203 207 208 210 211 217
46 59 60 53 49 46 25 19 5 14 52 66 68 58 47 40 38 49 69 82 92 98 112 112 113 124 136 140 152 146 143 142 146 155 184 178 209 209 259 230 204 201 220